Location: Applewhaites
(13.1667°N, 59.5667°W)
Time: 17:53:19
(UTC+00:00)

Daily predictions for brighter satellites

Satellite Brightness Start Highest point End
(mag) Time Altitude Azimuth Time Altitude Azimuth Time Altitude Azimuth
CSL-04 Rocket 4.3 22:12:59 10° SE 22:17:52 36° ENE 22:22:49 10° N
SL-08 ROCKET BODY 4.4 22:12:04 10° N 22:17:58 70° E 22:23:59 10° S
Meteor 2-8 Rocket 4.4 22:13:47 10° S 22:19:50 79° E 22:25:52 10° N
Iridium 2 4.2 22:16:19 10° S 22:20:02 66° W 22:23:46 10° N
Cosmos 2098 Rocket 4.4 22:17:19 10° N 22:24:51 85° E 22:31:51 10° S
Cosmos 1975 2.7 22:21:08 10° S 22:25:05 72° E 22:29:01 10° N
Envisat 3.0 22:22:07 10° SSE 22:27:10 75° ENE 22:32:14 10° N
YAOGAN 6 2.9 22:24:39 10° SSE 22:28:03 44° ENE 22:31:31 10° N
DELTA 2 R/B (1) 4.0 22:23:59 10° WSW 22:29:32 65° NW 22:35:05 10° NE
deb Ariane 4.3 22:27:49 10° SSW 22:29:39 17° SSE 22:32:31 10° ESE
Cosmos 1743 3.7 22:27:55 10° SSW 22:31:37 51° W 22:35:19 10° N
Meteor 2-21 Rocket 4.5 22:27:02 10° N 22:33:15 86° E 22:39:24 10° S
Lacrosse 4 Rocket 3.1 22:33:24 10° NE 22:35:21 13° ENE 22:36:17 12° E
Skynet4D Del rocket 4.5 22:28:21 10° WNW 22:35:32 71° NNE 22:42:50 13° ESE
SWIFT 3.0 22:32:16 10° WNW 22:36:17 43° N 22:39:39 14° E
Shi Jian 4 4.2 22:34:41 10° SW 22:36:43 27° SSE 22:37:52 17° E
Cosmos 1461 4.0 22:32:55 10° SW 22:36:58 48° WNW 22:40:53 10° N
Aurora 2 Rocket 4.5 22:28:57 10° SW 22:39:14 61° SSE 22:46:16 14° E
Okean 2 3.9 22:36:23 10° NNE 22:40:09 36° E 22:43:57 10° SSE
Cosmos 2322 Rocket 2.5 22:34:58 10° N 22:40:16 43° ENE 22:45:34 10° SE
Maqsat-H 4.1 22:35:39 10° SW 22:40:25 32° SSE 22:51:27 15° E
Cosmos 1975 Rocket 3.1 22:38:47 10° N 22:43:14 89° E 22:47:39 10° S
APEX 2.2 22:43:06 10° NNW 22:45:55 84° ENE 22:48:35 10° SSE
CZ-4 R/B 1.9 22:46:30 10° S 22:50:16 58° WSW 22:54:03 10° NNW
Okean 1 Rocket 3.6 22:47:19 10° SSE 22:51:15 35° E 22:55:11 10° NNE
Cosmos 494 Rocket 3.9 22:46:48 10° N 22:52:00 71° ENE 22:57:13 10° SSE
PSLV R/B 4.0 22:52:07 10° WSW 22:54:37 37° NW 22:56:42 13° NNE
ARIANE 5 R/B 4.3 22:53:24 10° SSW 22:55:44 15° SSE 22:57:42 14° SE
GPS 2-18 Rocket1 3.6 22:55:24 10° W 22:59:00 48° SSW 23:00:48 25° SE
Sylda 5 3.6 22:59:26 10° WSW 23:02:44 23° S 23:04:17 17° SSE
Mugunghwa Rocket 4.0 22:56:30 10° WSW 23:02:47 79° NNW 23:07:31 19° ENE
Cosmos 2219 3.5 22:57:29 10° S 23:02:54 45° ESE 23:08:20 10° NNE
Cosmos 1842 4.3 23:00:03 10° NNE 23:02:39 26° ENE 23:02:39 26° ENE
USA 32 4.0 22:58:24 10° N 23:03:33 61° E 23:08:43 10° SSE
ADEOS Rocket 4.0 22:57:30 10° NE 23:04:23 36° E 23:11:20 10° SSE
Cosmos 2227 Rocket 3.5 23:02:39 10° SSE 23:05:04 20° SE 23:05:04 20° SE
GP-B 3.0 23:04:38 10° NNE 23:09:01 64° E 23:13:24 10° S
Ariane Rocket 3.0 23:04:29 10° SSE 23:09:26 58° ENE 23:14:23 10° N
CZ-3 Stage 3 1.4 23:03:01 10° WSW 23:10:09 69° NNW 23:11:10 37° NE
Cosmos 2184 Rocket 4.2 23:04:46 10° NNE 23:10:46 49° E 23:16:49 10° SSE
ISS -3.7 23:08:45 10° SW 23:12:03 73° NW 23:13:18 34° NNE
Cosmos 2056 Rocket 4.4 23:07:28 10° SSE 23:11:01 28° ESE 23:11:01 28° ESE
Cosmos 2360 Rocket 2.6 23:07:43 10° N 23:12:56 38° ENE 23:14:13 34° ESE
ASTEX 1 3.5 23:09:04 10° NNE 23:13:45 47° E 23:18:26 10° S
Cosmos 1269 Rocket 4.3 23:09:13 10° NNW 23:14:28 70° WSW 23:19:44 10° S
Cosmos 2297 Rocket 2.9 23:13:24 10° SSE 23:17:15 31° SE 23:17:15 31° SE
YAOGAN 1 4.4 23:17:33 10° SSW 23:21:25 32° W 23:25:17 10° NW
ARIANE 44L R/B 4.3 23:00:26 10° WSW 23:21:28 39° SSW 23:23:42 28° SE
GPS 2-14 Rocket1 3.6 23:18:02 10° WNW 23:21:31 34° N 23:22:12 32° NNE
BREEZE-M DEB (TANK) 4.3 23:11:20 10° SSW 23:24:50 46° SE 23:26:01 41° ESE
Nadezhda 1 Rocket 4.2 23:21:32 10° S 23:27:37 71° W 23:33:39 10° N
Cosmos 1441 Rocket 4.2 23:24:23 10° SSW 23:28:09 48° W 23:31:53 10° N
CZ-2C R/B 4.4 23:23:56 10° N 23:28:13 51° WNW 23:32:30 10° SSW
COSMOS 2455 4.4 23:24:45 10° NNE 23:27:05 18° NE 23:27:05 18° NE
SL-16 R/B 3.3 23:24:01 10° NNW 23:29:22 45° WSW 23:34:43 10° S
Cosmos 1939 Rocket 3.2 23:27:18 18° S 23:30:03 62° W 23:33:52 10° NNW
Cosmos 1536 Rocket 3.4 23:29:03 10° N 23:33:22 88° WSW 23:34:00 64° S
Cosmos 1544 4.5 23:30:29 10° SSW 23:33:49 37° W 23:37:09 10° NNW
Cosmos 1025 Rocket 3.6 23:39:03 10° N 23:42:11 48° NNW 23:42:11 48° NNW
Cosmos 2327 Rocket 4.3 23:37:51 10° N 23:44:00 74° E 23:45:23 54° SSE
MOS 1 4.1 23:43:56 57° SSE 23:45:08 82° ENE 23:50:50 10° N
USA 267 3.8 23:52:23 40° SSE 23:52:23 40° SSE 23:56:55 10° SSW
GPS 2-17 Rocket1 4.0 23:46:37 10° W 23:49:58 41° NW 23:49:58 41° NW
Lacrosse 5 rocket 3.4 23:49:31 10° SW 23:50:36 18° SW 23:50:36 18° SW
Cosmos 1371 Rocket 4.3 23:49:33 10° SSW 23:54:44 65° WNW 23:59:57 10° N
